Flag for Russia Weather past 2 weeks in Yuzhno-Sakhalinsk, Russia

Now
70 °F

Clear.


Feels Like: 70 °F
Forecast: 38 / 67 °F
Wind: 17 mph from Northwest

Location: Yuzhno Airport-Sakhalinsk

Current Time: May 27, 2015 at 12:42:17 PM

Latest Report: May 27, 2015 at 12:00 PM


Visibility: N/A

Pressure: 29.74 "Hg

Humidity: 29%

Dew point: 36 °F

Location of Yuzhno-SakhalinskLocation

Historic Weather in Yuzhno-Sakhalinsk — Graph

°F

Yuzhno-Sakhalinsk temperature yesterday

Maximum temperature yesterday: 61 °F (at 12:30 PM)
Minimum temperature yesterday: 37 °F (at 11:00 PM)
Average temperature yesterday: 49 °F

Past Weeks' High & Low Weather Summary

 TemperatureHumidityPressure
High68 °F (May 27, 11:30 AM)100% (May 13, 12:00 AM)30.04 "Hg (May 13, 12:00 AM)
Low28 °F (May 15, 1:00 AM)28% (May 23, 4:30 PM)29.36 "Hg (May 17, 7:00 AM)
Average44 °F79%29.68 "Hg
* Reported May 12 11:00 AM — May 27 11:30 AM, Yuzhno-Sakhalinsk, Weather by CustomWeather, © 2015

Note: Actual official high and low records may vary slightly from our data, if they occured in-between our weather recording intervals... More about our weather records

Advertising

Yuzhno-Sakhalinsk weather history for previous 24 hours

 ConditionsComfort  
Time TempWeatherWind HumidityBarometerVisibility
11:30 AM
Wed, May 27
68 °FClear.10 mph28%29.74 "HgN/A
11:00 AM66 °FClear.8 mph30%29.74 "HgN/A
10:30 AM64 °FClear.1 mph37%29.77 "HgN/A
10:00 AM63 °FClear.1 mph45%29.77 "HgN/A
9:30 AM57 °FClear.1 mph59%29.77 "HgN/A
9:00 AM52 °FClear.1 mph88%29.80 "HgN/A
8:30 AM48 °FPassing clouds.1 mph100%29.80 "HgN/A
8:00 AM45 °FBroken clouds.1 mph100%29.80 "HgN/A
7:30 AM41 °FFog.3 mph100%29.80 "Hg1 mi
6:30 AM37 °FFog.No wind100%29.80 "Hg0 mi
6:00 AM37 °FFog.1 mph100%29.80 "Hg0 mi
5:30 AM37 °FFog.No wind100%29.80 "Hg0 mi
5:00 AM37 °FFog.No wind100%29.80 "Hg0 mi
4:00 AM39 °FFog.1 mph100%29.80 "Hg0 mi
3:00 AM41 °FFog.1 mph100%29.80 "Hg0 mi
2:00 AM41 °FFog.No wind100%29.80 "Hg0 mi
1:00 AM43 °FFog.1 mph100%29.80 "Hg0 mi
12:00 AM41 °FFog.1 mph100%29.80 "Hg1 mi
11:00 PM
Tue, May 26
37 °FClear.No wind93%29.80 "HgN/A
10:00 PM39 °FClear.No wind100%29.80 "HgN/A
9:30 PM43 °FClear.3 mph93%29.80 "HgN/A
9:00 PM45 °FClear.3 mph93%29.80 "HgN/A
8:30 PM46 °FClear.1 mph87%29.80 "HgN/A
8:00 PM48 °FClear.1 mph82%29.80 "HgN/A
7:30 PM50 °FPassing clouds.3 mph82%29.80 "HgN/A
7:00 PM50 °FPassing clouds.6 mph82%29.77 "HgN/A
6:30 PM52 °FPassing clouds.8 mph82%29.77 "HgN/A
6:00 PM52 °FPassing clouds.8 mph82%29.77 "HgN/A
5:30 PM52 °FPassing clouds.10 mph88%29.77 "HgN/A
5:00 PM54 °FPassing clouds.3 mph82%29.77 "HgN/A
4:30 PM52 °FSprinkles. Scattered clouds.1 mph82%29.77 "HgN/A
4:00 PM54 °FSprinkles. Partly sunny.3 mph77%29.77 "Hg4 mi
3:30 PM55 °FSprinkles. Partly sunny.6 mph67%29.77 "HgN/A
3:00 PM57 °FPartly sunny.3 mph59%29.77 "HgN/A
2:30 PM59 °FScattered clouds.10 mph59%29.74 "HgN/A
2:00 PM61 °FScattered clouds.15 mph55%29.77 "HgN/A
1:30 PM59 °FScattered clouds.17 mph59%29.77 "HgN/A
12:30 PM61 °FScattered clouds.6 mph52%29.77 "HgN/A
12:00 PM59 °FScattered clouds.3 mph51%29.77 "HgN/A
Weather by CustomWeather, © 2015

See weather overviewHow to use our weather pages